Lihue, HI

4:02 AM HST on November 23, 2017 (GMT -1000)
Lihue

Weather History for PHLI - May, 2014

Change the Weather History Date:

Saturday, May 3, 2014

  Actual Average Record
Temperature  
Mean Temperature 77 °F 75 °F  
Max Temperature 82 °F 80 °F 86 °F (1978)
Min Temperature 72 °F 69 °F 62 °F (1996)
Degree Days  
Heating Degree Days 0 0  
Month to date heating degree days 0 0  
Since 1 July heating degree days 0 0  
Cooling Degree Days 12 10  
Month to date cooling degree days 33 30  
Year to date cooling degree days 909 934  
Growing Degree Days 26 (Base 50)    
Moisture  
Dew Point 71 °F    
Average Humidity 84    
Maximum Humidity 93    
Minimum Humidity 74    
Precipitation  
Precipitation 0.00 in 0.08 in 1.40 in (2010)
Month to date precipitation T 0.24  
Year to date precipitation 12.98 14.01  
Snow  
Snow 0.00 in - - ()
Month to date snowfall 0.0  
Since 1 July snowfall 0.0  
Snow Depth 0.00 in    
Sea Level Pressure  
Sea Level Pressure 30.05 in    
Wind  
Wind Speed 7 mph (ESE)    
Max Wind Speed 13 mph    
Max Gust Speed 16 mph    
Visibility 10 miles    
Events      
T = Trace of Precipitation, MM = Missing Value Source: NWS Daily Summary

Daily Weather History Graph

Daily Weather History Graph

Search for Another Location

Airport or City:

Trip Planner

Search our weather history database for the weather conditions in past years. The results will help you decide how hot, cold, wet, or windy it might be!

Date:

Astronomy

May. 03, 2014 Rise Set
Actual Time 6:04 AM HST 7:04 PM HST
Civil Twilight 5:40 AM HST 7:27 PM HST
Nautical Twilight 5:13 AM HST 7:55 PM HST
Astronomical Twilight 4:44 AM HST 8:24 PM HST
Moon 9:49 AM HST (5/3) 11:15 PM HST (5/3)
Length of Visible Light 13h 47m
Length of Day
13h 00m
Waxing Crescent, 21% of the Moon is Illuminated
May 3
Waxing Crescent
May 6
First Quarter
May 14
Full
May 21
Last Quarter
May 28
New

Hourly Weather History & Observations

Time (HST) Temp. Heat Index Dew Point Humidity Pressure Visibility Wind Dir Wind Speed Gust Speed Precip Events Conditions
12:25 AM 73.4 °F - 71.6 °F 94% 30.07 in 10.0 mi East 9.2 mph - N/A   Partly Cloudy
12:53 AM 73.8 °F - 71.1 °F 91% 30.06 in 10.0 mi East 9.2 mph - N/A   Mostly Cloudy
1:23 AM 73.4 °F - 69.8 °F 88% 30.06 in 10.0 mi ENE 9.2 mph - N/A   Overcast
1:53 AM 73.4 °F - 70.0 °F 89% 30.04 in 10.0 mi ENE 10.4 mph - N/A   Overcast
2:21 AM 73.4 °F - 71.6 °F 94% 30.04 in 10.0 mi East 9.2 mph - N/A   Overcast
2:30 AM 73.4 °F - 71.6 °F 94% 30.04 in 10.0 mi East 9.2 mph - N/A   Overcast
2:53 AM 73.0 °F - 71.1 °F 93% 30.03 in 10.0 mi ENE 8.1 mph - N/A   Overcast
3:53 AM 74.1 °F - 71.1 °F 90% 30.02 in 10.0 mi East 6.9 mph - N/A   Overcast
4:51 AM 73.4 °F - 71.6 °F 94% 30.02 in 10.0 mi ESE 3.5 mph - N/A   Mostly Cloudy
4:53 AM 74.1 °F - 71.1 °F 90% 30.02 in 10.0 mi ESE 3.5 mph - N/A   Scattered Clouds
5:53 AM 73.6 °F - 71.1 °F 92% 30.02 in 10.0 mi WNW 3.5 mph - N/A   Mostly Cloudy
6:03 AM 71.6 °F - 69.8 °F 94% 30.03 in 10.0 mi WNW 5.8 mph - N/A   Mostly Cloudy
6:16 AM 71.6 °F - 69.8 °F 94% 30.03 in 10.0 mi WNW 5.8 mph - N/A   Mostly Cloudy
6:53 AM 71.6 °F - 70.0 °F 95% 30.04 in 10.0 mi Calm Calm - N/A   Scattered Clouds
7:06 AM - - - N/A% 30.05 in 10.0 mi West 4.6 mph - N/A   Mostly Cloudy
7:15 AM - - - N/A% 30.05 in 10.0 mi WNW 5.8 mph - N/A   Scattered Clouds
7:53 AM 75.2 °F - 70.0 °F 84% 30.06 in 10.0 mi Calm Calm - N/A   Mostly Cloudy
8:09 AM 75.2 °F - 69.8 °F 83% 30.07 in 10.0 mi Calm Calm - N/A   Scattered Clouds
8:53 AM 75.2 °F - 70.0 °F 84% 30.08 in 10.0 mi South 4.6 mph - N/A   Scattered Clouds
9:18 AM - - - N/A% 30.08 in 10.0 mi ESE 8.1 mph - N/A   Mostly Cloudy
9:53 AM 79.0 °F - 72.0 °F 79% 30.08 in 10.0 mi ESE 9.2 mph - N/A   Scattered Clouds
10:53 AM 79.0 °F - 72.0 °F 79% 30.09 in 10.0 mi ESE 9.2 mph - N/A   Partly Cloudy
11:53 AM 80.1 °F 83.8 °F 72.0 °F 76% 30.07 in 10.0 mi SE 11.5 mph - N/A   Mostly Cloudy
12:53 PM 80.1 °F 83.8 °F 72.0 °F 76% 30.06 in 10.0 mi ESE 12.7 mph - N/A   Mostly Cloudy
1:53 PM 81.0 °F 85.2 °F 72.0 °F 74% 30.04 in 10.0 mi ESE 10.4 mph - N/A   Clear
2:53 PM 80.1 °F 83.6 °F 71.1 °F 74% 30.02 in 10.0 mi ESE 10.4 mph - N/A   Clear
3:53 PM 79.0 °F - 71.1 °F 77% 30.01 in 10.0 mi ESE 9.2 mph - N/A   Scattered Clouds
4:53 PM 78.1 °F - 71.1 °F 79% 30.01 in 10.0 mi ESE 6.9 mph - N/A   Clear
5:53 PM 77.0 °F - 71.1 °F 82% 30.01 in 10.0 mi ESE 6.9 mph - N/A   Clear
6:53 PM 75.0 °F - 70.0 °F 84% 30.02 in 10.0 mi ESE 4.6 mph - N/A   Partly Cloudy
7:53 PM 75.0 °F - 70.0 °F 84% 30.04 in 10.0 mi SE 3.5 mph - N/A   Overcast
8:53 PM 75.0 °F - 70.0 °F 84% 30.06 in 10.0 mi Calm Calm - N/A   Partly Cloudy
9:53 PM 73.0 °F - 70.0 °F 90% 30.07 in 10.0 mi WNW 3.5 mph - N/A   Overcast
10:53 PM - - - N/A% 30.08 in 10.0 mi WNW 5.8 mph - N/A   Overcast
11:53 PM 71.4 °F - 69.1 °F 92% 30.07 in 10.0 mi West 5.8 mph - N/A   Clear